Regional Weather Roundup
Issued by NWS Huntsville, AL

Home | Current Version | Previous Version | Text Only | Print | Product List | Glossary On
Versions: 1 2 3 4 5 6 7 8 9 10 11 12 13 14 15 16 17 18 19 20 21 22 23 24 25 26 27
000
ASUS44 KHUN 260210
RWRHUN

WEATHER ROUNDUP FOR THE TENNESSEE VALLEY
NATIONAL WEATHER SERVICE HUNTSVILLE AL
900 PM CDT SUN JUN 25 2017

ALZ001>004-260300-
NORTHWEST ALABAMA

CITY           SKY/WX    TMP DP  RH WIND       PRES   REMARKS
COURTLAND HCN    N/A     68 N/A N/A CALM        N/A
RUSSELLVILLE     N/A     63 N/A N/A MISG        N/A
SHOALS AIRPORT CLEAR     72  54  53 CALM      30.19S
SHOALS TVA RES   N/A     75 N/A N/A MISG        N/A
$$

ALZ005>007-016-260300-
NORTH CENTRAL ALABAMA

CITY           SKY/WX    TMP DP  RH WIND       PRES   REMARKS
CULLMAN AG STN   N/A     64 N/A N/A CALM        N/A
DECATUR AP     CLEAR     66  62  87 CALM      30.19R
HUNTSVILLE AP  CLEAR     73  54  51 N5        30.18R
MERIDIANVILLE  CLEAR     64  59  82 CALM      30.19S
REDSTONE ARSN  CLEAR     67  56  66 CALM      30.17R
VINEMONT AP    FAIR      61  57  84 CALM      30.22R
$$

ALZ008>010-260300-
NORTHEAST ALABAMA

CITY           SKY/WX    TMP DP  RH WIND       PRES   REMARKS
ALBERTVILLE    CLEAR     68  68 100 CALM      30.18R
FORT PAYNE     NOT AVBL
SCOTTSBORO AP  CLEAR     66  59  77 CALM      30.19R
SCOTTSBORO HCN   N/A     64 N/A N/A MISG        N/A
VALLEY HEAD      N/A     63 N/A N/A MISG        N/A
$$

TNZ076-096-097-260300-
SOUTHEASTERN MIDDLE TENNESSEE

CITY           SKY/WX    TMP DP  RH WIND       PRES   REMARKS
TULLAHOMA      CLEAR     63  55  77 CALM      30.21S
WINCHESTER     CLEAR     64  57  77 CALM        N/A
$$

...SURROUNDING SITES...

CITY           SKY/WX    TMP DP  RH WIND       PRES   REMARKS
ATLANTA        CLOUDY    71  61  70 NW10      30.15F
ANNISTON       CLOUDY    68  64  87 CALM      30.18R
BIRMINGHAM     CLOUDY    68  63  84 N5        30.20S
CHATTANOOGA    PTCLDY    71  51  49 NW5       30.18R
CORINTH        FAIR      68  59  73 CALM      30.18S
DALTON         PTCLDY    66  64  94 CALM      30.17S
GADSDEN        PTCLDY    67  65  93 CALM      30.18R
GOLDEN TRNGL   CLEAR     70  61  73 S5        30.14R
JACKSON TN     CLEAR     68  61  78 CALM      30.18S
MEMPHIS        CLEAR     78  50  37 CALM      30.18S
NASHVILLE      PTCLDY    71  51  49 SW3       30.18S
OXFORD MS        N/A    N/A N/A N/A MISG        N/A
ROME           PTCLDY    68  66  93 CALM      30.16R
SAVANNAH       CLEAR     64  61  88 CALM      30.17S
SELMER         CLEAR     66  63  88 CALM      30.18S
TUPELO         CLEAR     72  57  59 CALM      30.17S
TUSCALOOSA     PTCLDY    68  66  93 CALM      30.17F
$$

...GULF COAST WEATHER...

CITY           SKY/WX    TMP DP  RH WIND       PRES   REMARKS
GULFPORT       CLEAR     81  69  67 N7        30.10R
PASCAGOULA     CLOUDY    79  71  76 NE6       30.11R
MOBILE         CLOUDY    78  64  61 N8        30.13R
GULF SHORES    PTCLDY    76  76 100 CALM      30.09S
PENSACOLA      PTCLDY    76  72  87 CALM      30.08F
DESTIN         LGT RAIN  81  81 100 NE3       30.08F HX  92
PANAMA CITY    DRIZZLE   77  75  93 CALM      30.09R
APPALACHICOLA  CLOUDY    75  75 100 NE3       30.07F
$$





USA.gov is the U.S. government's official web portal to all federal, state and local government web resources and services.